Regional Weather Roundup
Issued by NWS

Home | Current Version | Previous Version | Text Only | Print | Product List | Glossary Off
Versions: 1 2 3 4 5 6 7 8 9 10 11 12 13 14 15 16 17 18 19 20 21 22 23 24 25 26 27 28 29 30 31 32 33 34 35 36 37 38 39 40 41 42 43 44 45 46 47 48 49 50

000
ASUS43 KDMX 210207
RWRIA

WEATHER ROUNDUP FOR IOWA
NATIONAL WEATHER SERVICE DES MOINES IA
900 PM CDT WED AUG 20 2014

NOTE: "FAIR" INDICATES FEW OR NO CLOUDS BELOW 12,000 FEET WITH NO
SIGNIFICANT WEATHER AND/OR OBSTRUCTIONS TO VISIBILITY.

* - THESE STATIONS ARE NOT NWS STATIONS...THUS NOT UNDER NWS
QUALITY CONTROL.  THEY ALSO DO NOT REPORT WEATHER SUCH
AS PRECIPITATION OR FOG.

IAZ001>003-012>014-020>022-031>034-043>046-210300-
   NORTHWEST IOWA

CITY           SKY/WX    TMP DP  RH WIND       PRES   REMARKS
CARROLL *      PTCLDY    77  73  88 S8        29.81R
CHEROKEE *     MOCLDY    75  73  94 E5        29.81R
DENISON *      CLEAR     79  75  89 S12G17    29.78R HX  82
LE MARS *      CLEAR     77  75  94 SE5       29.78S
ORANGE CITY *  CLEAR     73  70  88 E5        29.80R
SHELDON *      CLEAR     72  70  94 SE9       29.79S
SIOUX CITY     MOCLDY    80  75  84 E8        29.76R HX  85
SPENCER        CLOUDY    72  69  90 SE8       29.82S
STORM LAKE *   CLEAR     72  72 100 CALM      29.83S
$$

IAZ055>058-069>071-079>083-090>094-210300-
   SOUTHWEST IOWA

CITY           SKY/WX    TMP DP  RH WIND       PRES   REMARKS
ATLANTIC *     CLEAR     81  75  83 SE9       29.80S HX  86
AUDUBON *      CLEAR     81  75  83 SE3       29.83S HX  86
CLARINDA *     CLEAR     81  75  83 VRB6      29.82S HX  86
COUNCIL BLFS * CLEAR     81  77  89 SE12      29.78R HX  88
CRESTON *      CLEAR     77  75  94 SE6       29.85S
HARLAN  *      CLEAR     79  75  89 S5        29.84R HX  82
LAMONI         CLEAR     79  75  87 SE5       29.85S HX  83
RED OAK *      CLEAR     82  75  78 SE7G14    29.80S HX  89
SHENANDOAH *   CLEAR     81  75  83 SE10      29.80R HX  86
$$

IAZ047>049-059>061-072>074-084-210300-
   CENTRAL IOWA

CITY           SKY/WX    TMP DP  RH WIND       PRES   REMARKS
AMES           MOCLDY    74  72  93 N3        29.84R
ANKENY *       CLEAR     77  73  88 S6        29.82S
CHARITON *     CLEAR     77  73  88 S9        29.85S
DES MOINES     PTCLDY    78  73  84 S5        29.82S HX  81
GRINNELL*      MOCLDY    73  70  88 E5        29.86S
KNOXVILLE *    CLEAR     79  73  83 S9        29.82S HX  82
MARSHALLTOWN   MOCLDY    70  69  97 E6        29.85R
PELLA *        PTCLDY    75  73  94 SE5       29.85S
PERRY *          N/A     75  73  94 SE6       29.82R
$$

IAZ004>006-015-016-023>025-035-036-210300-
   NORTH CENTRAL IOWA

CITY           SKY/WX    TMP DP  RH WIND       PRES   REMARKS
ALGONA *       CLEAR     72  70  94 SE6       29.85S
CLARION *      PTCLDY    72  70  94 E7        29.86R
ESTHERVILLE    CLOUDY    70  68  93 SE8       29.83R
FORT DODGE *   MOCLDY    72  70  94 E7        29.85R
MASON CITY     CLOUDY    71  69  93 SE6       29.89R
FOREST CITY *  LGT RAIN  72  70  94 SE6       29.86S
IOWA FALLS *     N/A     70  68  94 CALM      29.87R
$$

IAZ007>011-017>019-026>030-037>042-050>054-066-210300-
   NORTHEAST IOWA

CITY           SKY/WX    TMP DP  RH WIND       PRES   REMARKS
CEDAR RAPIDS   MOCLDY    70  69  97 E7        29.86F
CHARLES CITY * PTCLDY    70  68  94 SE6       29.89R
CLINTON *      CLOUDY    70  66  88 CALM      29.93R
DECORAH *      CLEAR     72  70  94 S5        29.89R
DUBUQUE        CLOUDY    70  68  93 CALM      29.92R
MONTICELLO *   CLEAR     70  70 100 NE5       29.89S
OELWEIN *      PTCLDY    70  68  94 E7        29.89S
WATERLOO       MOCLDY    70  67  90 E6        29.86R
$$

IAZ064-065-067-068-078-210300-
   EAST CENTRAL IOWA

CITY           SKY/WX    TMP DP  RH WIND       PRES   REMARKS
DAVENPORT      MOCLDY    71  68  90 N3        29.91R
IOWA CITY      PTCLDY    73  70  90 CALM      29.88S
MT. PLEASANT * CLEAR     75  73  94 S6        29.87S
MUSCATINE *    CLEAR     73  70  88 CALM      29.88R
QUAD CITIES    PTCLDY    72  68  87 SE3       29.88F
$$

IAZ062-063-075>077-085>089-095>099-210300-
   SOUTHEAST IOWA

CITY           SKY/WX    TMP DP  RH WIND       PRES   REMARKS
BURLINGTON     LGT RAIN  74  71  91 S5        29.89R
FAIRFIELD *    PTCLDY    77  73  88 S6        29.86S
FORT MADISON * CLEAR     75  75 100 CALM      29.89R
KEOKUK *       CLEAR     77  75  94 SE5       29.88R
OSKALOOSA *      N/A     72  72 100 E6        29.86R
CENTERVILLE *  CLEAR     75  75 100 SE5       29.88S
OTTUMWA        CLEAR     77  74  90 S7        29.85S
WASHINGTON *   CLEAR     72  72 100 E6        29.88R
$$

ABBREVIATIONS USED IN REMARKS
   TC - TEMPERATURES IN CELSIUS
  WCI - WIND CHILL INDEX
   HX - HEAT INDEX
  VSB - VISIBILITY
$$




USA.gov is the U.S. government's official web portal to all federal, state and local government web resources and services.